DW0895 Weather Reports


Display with metric or nautical units.
time (UTC)temp
F
wind
direction
speed
MPH
gust
MPH
rain 1hr
in
rain 24hr
in
rain mn
in
humidity
%
barometer
mb
20190217124505 33 319 0.0 0.0 0.00 0.07 0.00 68 1008.2
20190217123008 33 319 0.0 0.0 0.00 0.07 0.00 67 1008.2
20190217121501 33 319 0.0 0.0 0.00 0.07 0.00 68 1007.8
20190217120212 33 319 0.0 0.0 0.00 0.07 0.00 69 1007.9
20190217114627 33 318 0.0 0.0 0.00 0.07 0.00 69 1008.0
20190217113220 33 318 0.0 0.0 0.00 0.07 0.00 70 1008.2
20190217111638 33 318 0.0 0.0 0.00 0.07 0.00 71 1008.9
20190217110204 33 318 0.0 0.0 0.00 0.07 0.00 72 1008.2
20190217104656 33 318 0.0 0.0 0.00 0.07 0.00 72 1008.0
20190217103137 33 318 0.0 0.0 0.00 0.07 0.00 72 1008.8
20190217101652 33 318 0.0 0.0 0.00 0.07 0.00 71 1007.8
20190217100158 32 319 0.0 0.0 0.00 0.07 0.00 70 1008.1
20190217094919 33 318 0.0 0.0 0.00 0.07 0.00 71 1007.9
20190217093111 33 318 0.0 0.0 0.00 0.07 0.00 72 1008.9
20190217091706 33 318 0.0 0.0 0.00 0.07 0.00 72 1009.2
20190217090215 33 318 0.0 0.0 0.00 0.07 0.00 74 1009.6
20190217084649 33 318 0.0 0.0 0.00 0.07 0.00 73 1009.8
20190217083148 33 318 0.0 0.0 0.00 0.07 0.00 73 1010.1
20190217081648 33 318 0.0 0.0 0.00 0.07 0.00 73 1010.0
20190217080124 33 318 0.0 0.0 0.00 0.07 0.00 73 1010.0
20190217074636 33 318 0.0 0.0 0.00 0.07 0.00 75 1010.1
20190217073103 33 319 0.0 0.0 0.00 0.07 0.00 74 1010.2
20190217071556 33 318 0.0 0.0 0.00 0.07 0.00 74 1010.1
20190217070058 33 318 0.0 0.0 0.00 0.07 0.00 75 1010.3
20190217064611 33 319 0.0 0.0 0.00 0.07 0.00 77 1010.7
20190217063047 33 319 0.0 0.0 0.00 0.07 0.00 76 1010.9
20190217061550 33 319 0.0 0.0 0.00 0.07 0.00 76 1011.1
20190217060040 33 319 0.0 0.0 0.00 0.07 0.07 76 1011.1
20190217054533 33 318 0.0 0.0 0.00 0.07 0.07 76 1011.3
20190217053031 33 318 0.0 0.0 0.00 0.07 0.07 77 1011.3
20190217051529 33 320 0.0 0.0 0.00 0.07 0.07 76 1011.0
20190217050033 32 320 0.0 0.0 0.00 0.07 0.07 74 1011.0
20190217044555 32 319 0.0 0.0 0.00 0.07 0.07 72 1011.5
20190217043025 32 319 0.0 0.0 0.00 0.07 0.07 71 1011.9
20190217041522 31 319 0.0 0.0 0.00 0.07 0.07 72 1012.7
20190217040042 31 320 0.0 0.0 0.00 0.07 0.07 71 1012.8
20190217034526 31 320 0.0 0.0 0.00 0.07 0.07 71 1012.6
20190217033020 30 320 0.0 0.0 0.00 0.07 0.07 71 1012.4
20190217031522 29 320 0.0 0.0 0.00 0.07 0.07 73 1012.4
20190217030015 30 320 0.0 0.0 0.00 0.07 0.07 74 1013.5
20190217024508 30 320 0.0 0.0 0.00 0.07 0.07 74 1013.5
20190217023011 30 320 0.0 0.0 0.00 0.07 0.07 75 1013.6
20190217021515 31 320 0.0 0.0 0.00 0.07 0.07 75 1012.9
20190217020040 31 320 0.0 0.0 0.00 0.07 0.07 75 1012.6
20190217014515 31 320 0.0 0.0 0.00 0.07 0.07 74 1012.4
20190217013020 31 320 0.0 0.0 0.00 0.07 0.07 75 1012.8
20190217011508 31 320 0.0 0.0 0.00 0.07 0.07 75 1013.2
20190217010006 31 320 0.0 0.0 0.00 0.07 0.07 74 1012.7
20190217004509 31 319 0.0 0.0 0.00 0.07 0.07 77 1013.5
20190217003003 31 319 0.0 0.0 0.00 0.07 0.07 77 1014.0
20190217000253 31 319 0.0 0.0 0.00 0.07 0.07 78 1013.8
20190216234640 32 319 0.0 0.0 0.00 0.07 0.07 78 1014.1
20190216233239 32 319 0.0 0.0 0.00 0.07 0.07 78 1014.3
20190216231701 33 319 0.0 0.0 0.00 0.07 0.07 78 1014.6
20190216230236 33 318 0.0 0.0 0.00 0.07 0.07 77 1015.0
20190216224640 33 318 0.0 0.0 0.01 0.07 0.07 76 1015.3
20190216223157 33 319 0.0 0.0 0.01 0.07 0.07 75 1015.3
20190216221638 33 316 0.0 0.0 0.01 0.07 0.07 75 1015.4
20190216220127 33 318 0.0 0.0 0.00 0.06 0.06 75 1015.5
20190216214626 33 319 0.0 0.0 0.00 0.06 0.06 75 1015.9
20190216213206 33 317 0.0 0.0 0.00 0.06 0.06 74 1015.8
20190216211707 33 315 0.0 0.0 0.00 0.06 0.06 75 1016.1
20190216210234 32 316 0.0 0.0 0.00 0.06 0.06 76 1015.7
20190216204618 32 315 0.0 0.0 0.00 0.06 0.06 75 1016.1
20190216203102 32 315 0.0 0.0 0.01 0.06 0.06 76 1016.3
20190216201639 32 315 0.0 0.0 0.01 0.06 0.06 76 1016.0
20190216200132 31 315 0.0 0.0 0.02 0.06 0.06 76 1016.1
20190216194636 31 315 0.0 0.0 0.02 0.06 0.06 77 1016.1
20190216193126 31 316 0.0 0.0 0.01 0.05 0.05 77 1016.3
20190216191610 30 317 0.0 0.0 0.02 0.05 0.05 77 1016.8
20190216190058 30 276 0.0 0.0 0.02 0.04 0.04 77 1016.9
20190216184539 29 297 0.0 0.0 0.02 0.04 0.04 77 1017.5
20190216183107 29 327 0.0 0.0 0.03 0.04 0.04 78 1017.6
20190216181606 28 78 0.0 0.0 0.03 0.03 0.03 77 1017.8
20190216180026 28 317 0.0 0.0 0.02 0.02 0.02 78 1018.4
20190216174520 27 282 0.0 0.0 0.02 0.02 0.02 78 1019.0
20190216173035 27 36 0.0 0.0 0.01 0.01 0.01 78 1019.1
20190216171526 27 311 0.0 0.0 0.00 0.00 0.00 78 1019.0
20190216170030 26 285 0.0 0.0 0.00 0.00 0.00 78 1019.0
20190216164511 26 20 0.0 0.0 0.00 0.00 0.00 78 1019.4
20190216163012 25 315 0.0 0.0 0.00 0.00 0.00 79 1019.6
20190216161506 24 40 0.0 0.0 0.00 0.00 0.00 79 1019.9
20190216160003 24 33 0.0 0.0 0.00 0.00 0.00 79 1019.6
20190216154502 23 103 0.0 0.0 0.00 0.00 0.00 79 1019.6
20190216153251 23 142 0.0 0.0 0.00 0.00 0.00 79 1019.6
20190216151730 23 194 0.0 0.0 0.00 0.00 0.00 79 1020.3
20190216150238 22 195 0.0 0.0 0.00 0.00 0.00 79 1020.2
20190216144640 22 196 0.0 0.0 0.00 0.00 0.00 79 1020.5
20190216143145 21 178 0.0 0.0 0.00 0.00 0.00 79 1020.3
20190216141706 21 199 0.0 0.0 0.00 0.00 0.00 79 1020.5
20190216140201 20 192 0.0 0.0 0.00 0.00 0.00 78 1020.4
20190216134650 20 192 0.0 0.0 0.00 0.00 0.00 78 1020.2
20190216133154 19 192 0.0 0.0 0.00 0.00 0.00 78 1020.2
20190216131716 19 192 0.0 0.0 0.00 0.00 0.00 78 1019.5
20190216130144 20 192 0.0 0.0 0.00 0.00 0.00 78 1019.4
20190216124722 20 192 0.0 0.0 0.00 0.00 0.00 78 1019.2